YG1CIC-13 Weather Reports


time (UTC)temp
C
wind
direction
speed
KPH
gust
KPH
rain 1hr
cm
rain 24hr
cm
rain mn
cm
humidity
%
barometer
mb
20260504205322 25 0 0.0 0.0 0.00 0.00 0.00 100
20260504204322 25 0 0.0 0.0 0.00 0.00 0.00 100
20260504203321 25 0 0.0 0.0 0.00 0.00 0.00 100
20260504202321 25 0 0.0 0.0 0.00 0.00 0.00 100
20260504201327 25 0 0.0 0.0 0.00 0.00 0.00 100
20260504200320 25 0 0.0 0.0 0.00 0.00 0.00 100
20260504195319 26 0 0.0 0.0 0.00 0.00 0.00 100
20260504194319 26 0 0.0 0.0 0.00 0.00 0.00 100
20260504193319 26 0 0.0 0.0 0.00 0.00 0.00 100
20260504192318 26 0 0.0 0.0 0.00 0.00 0.00 100
20260504191325 26 0 0.0 0.0 0.00 0.00 0.00 100
20260504190317 26 0 0.0 0.0 0.00 0.00 0.00 100
20260504185317 26 0 0.0 0.0 0.00 0.00 0.00 100
20260504184317 26 0 0.0 0.0 0.00 0.00 0.00 100
20260504183317 26 0 0.0 0.0 0.00 0.00 0.00 99
20260504182317 26 0 0.0 0.0 0.00 0.00 0.00 100
20260504181317 26 0 0.0 0.0 0.00 0.00 0.00 100
20260504180316 26 0 0.0 0.0 0.00 0.00 0.00 100
20260504175316 26 0 0.0 0.0 0.00 0.00 0.00 100
20260504174316 26 0 0.0 0.0 0.00 0.00 0.00 100
20260504173316 26 0 0.0 0.0 0.00 0.00 0.00 100
20260504172316 26 0 0.0 0.0 0.00 0.00 0.00 100
20260504171323 26 0 0.0 0.0 0.00 0.00 0.00 100
20260504170316 26 0 0.0 0.0 0.00 0.00 0.00 100
20260504160314 26 0 0.0 0.0 0.00 0.00 0.00 100
20260504150313 26 0 0.0 0.0 0.00 0.00 0.00 100
20260504141312 26 0 0.0 0.0 0.00 0.00 0.00 100
20260504140311 26 0 0.0 0.0 0.00 0.00 0.00 100
20260504120306 26 0 0.0 0.0 0.00 0.00 0.00 100
20260504110302 26 0 0.0 0.0 0.00 0.00 0.00 99
20260504100257 26 0 0.0 0.0 0.00 0.00 0.00 100
20260504081248 31 0 0.0 0.0 0.00 0.00 0.00 79
20260504080247 32 0 0.0 0.0 0.00 0.00 0.00 80
20260504070241 32 0 0.0 0.0 0.00 0.00 0.00 80
20260504060240 30 0 0.0 0.0 0.00 0.00 0.00 81
20260504050238 31 0 0.0 0.0 0.00 0.00 0.00 86
20260504045238 32 0 0.0 0.0 0.00 0.00 0.00 80
20260504044237 32 0 0.0 0.0 0.00 0.00 0.00 75
20260504043237 33 0 0.0 0.0 0.00 0.00 0.00 73
20260504042238 34 0 0.0 0.0 0.00 0.00 0.00 69
20260504041236 36 0 0.0 0.0 0.00 0.00 0.00 59
20260504040236 36 0 0.0 0.0 0.00 0.00 0.00 58
20260504035236 37 0 0.0 0.0 0.00 0.00 0.00 57
20260504034236 37 0 0.0 0.0 0.00 0.00 0.00 57
20260504033236 36 0 0.0 0.0 0.00 0.00 0.00 59
20260504032236 37 0 0.0 0.0 0.00 0.00 0.00 58
20260504031235 36 0 0.0 0.0 0.00 0.00 0.00 59
20260504030234 36 0 0.0 0.0 0.00 0.00 0.00 60
20260504025234 38 0 0.0 0.0 0.00 0.00 0.00 56
20260504024234 36 0 0.0 0.0 0.00 0.00 0.00 59
20260504023234 37 0 0.0 0.0 0.00 0.00 0.00 57
20260504022234 40 0 0.0 0.0 0.00 0.00 0.00 52
20260504012238 37 0 0.0 0.0 0.00 0.00 0.00 61
20260504011240 36 0 0.0 0.0 0.00 0.00 0.00 62
20260504005231 30 0 0.0 0.0 0.00 0.00 0.00 80
20260504004231 29 0 0.0 0.0 0.00 0.00 0.00 84
20260504003230 29 0 0.0 0.0 0.00 0.00 0.00 86
20260504002229 28 0 0.0 0.0 0.00 0.00 0.00 87
20260504001229 28 0 0.0 0.0 0.00 0.00 0.00 90
20260504000230 27 0 0.0 0.0 0.00 0.00 0.00 92
20260503235227 27 0 0.0 0.0 0.00 0.00 0.00 92
20260503234227 27 0 0.0 0.0 0.00 0.00 0.00 93
20260503233226 27 0 0.0 0.0 0.00 0.00 0.00 94
20260503232225 27 0 0.0 0.0 0.00 0.00 0.00 95
20260503231225 26 0 0.0 0.0 0.00 0.00 0.00 90
20260503230226 26 0 0.0 0.0 0.00 0.00 0.00 92
20260503224224 26 0 0.0 0.0 0.00 0.00 0.00 92
20260503223223 26 0 0.0 0.0 0.00 0.00 0.00 93
20260503222222 27 0 0.0 0.0 0.00 0.00 0.00 93
20260503221222 26 0 0.0 0.0 0.00 0.00 0.00 91
20260503220221 27 0 0.0 0.0 0.00 0.00 0.00 93
20260503215222 27 0 0.0 0.0 0.00 0.00 0.00 90
20260503214220 27 0 0.0 0.0 0.00 0.00 0.00 92
20260503213219 27 0 0.0 0.0 0.00 0.00 0.00 90
20260503212219 27 0 0.0 0.0 0.00 0.00 0.00 90
20260503211218 27 0 0.0 0.0 0.00 0.00 0.00 89
20260503210218 27 0 0.0 0.0 0.00 0.00 0.00 90